Date String (YYYY-MM-DD hh:mm:ss) UTC,Instrument flags,Ambient pressure (hPa),Sample flow (lpm),Bypass flow (lpm),Sample temperature (°C),Ambient temperature (°C),ASC tube jacket temperature (°C),LED temperature (°C),Box temperature (°C),Sample RH (%),Span deviation,Mass concentration (μg/m³),Mass concentration (μg/m³),Mass concentration (μg/m³)
DateTimeUTC,F1_M11,P_M11,Q1_M11,Q2_M11,T1_M11,T2_M11,T3_M11,T4_M11,T5_M11,U1_M11,ZSPAN_M11,X0_M11,X2_M11,X1_M11
2023-02-12 17:00:00,,0824.4,5.01,0.00,22.5,21.0,00.0,31.3,24.3,12.0,0000.0,0009.11,0005.81,0005.38
2023-02-12 17:01:00,,0824.4,5.01,0.00,22.5,21.0,00.0,31.3,24.3,11.8,0000.0,0009.09,0005.77,0005.34
2023-02-12 17:02:00,,0824.4,4.98,0.00,22.5,20.9,00.0,31.3,24.3,11.7,0000.0,0009.09,0005.75,0005.29
2023-02-12 17:03:00,,0824.4,5.01,0.00,22.5,20.9,00.0,31.3,24.3,11.6,0000.0,0009.15,0005.71,0005.24
2023-02-12 17:04:00,,0824.5,5.04,0.00,22.5,20.9,00.0,31.3,24.3,11.7,0000.0,0009.32,0005.63,0005.19
2023-02-12 17:05:00,,0824.5,5.01,0.00,22.4,20.9,00.0,31.3,24.3,11.6,0000.0,0009.41,0005.56,0005.12
2023-02-12 17:06:00,,0824.7,4.99,0.00,22.4,20.9,00.0,31.3,24.3,11.5,0000.0,0009.32,0005.48,0005.04
2023-02-12 17:07:00,,0824.6,5.01,0.00,22.4,20.9,00.0,31.3,24.3,11.5,0000.0,0009.16,0005.40,0004.99
2023-02-12 17:08:00,,0824.6,5.02,0.00,22.4,20.9,00.0,31.3,24.3,11.4,0000.0,0009.10,0005.36,0004.93
2023-02-12 17:09:00,,0824.6,4.98,0.00,22.4,20.9,00.0,31.3,24.3,11.6,0000.0,0009.03,0005.32,0004.88
2023-02-12 17:10:00,,0824.7,4.98,0.00,22.4,20.9,00.0,31.3,24.2,11.9,0000.0,0008.98,0005.27,0004.83
2023-02-12 17:11:00,,0824.6,5.00,0.00,22.4,20.9,00.0,31.3,24.3,12.1,0000.0,0008.95,0005.23,0004.79
2023-02-12 17:12:00,,0824.7,5.02,0.00,22.4,20.9,00.0,31.3,24.3,11.9,0000.0,0009.73,0005.23,0004.77
2023-02-12 17:13:00,,0824.6,5.04,0.00,22.4,20.9,00.0,31.3,24.3,11.8,0000.0,0009.91,0005.21,0004.75
2023-02-12 17:14:00,,0824.7,5.00,0.00,22.4,20.9,00.0,31.3,24.3,11.7,0000.0,0009.93,0005.20,0004.73
2023-02-12 17:15:00,,0824.7,5.00,0.00,22.4,20.9,00.0,31.3,24.2,11.8,0000.0,0009.64,0005.17,0004.72
2023-02-12 17:16:00,,0824.6,4.99,0.00,22.4,20.9,00.0,31.3,24.3,11.7,0000.0,0009.09,0005.18,0004.72
2023-02-12 17:17:00,,0824.7,4.99,0.00,22.4,20.9,00.0,31.3,24.3,11.5,0000.0,0009.14,0005.21,0004.73
2023-02-12 17:18:00,,0824.7,4.99,0.00,22.4,20.9,00.0,31.3,24.3,11.5,0000.0,0009.25,0005.24,0004.73
2023-02-12 17:19:00,,0824.7,4.98,0.00,22.4,21.0,00.0,31.3,24.3,11.6,0000.0,0009.19,0005.20,0004.71
2023-02-12 17:20:00,,0824.7,5.00,0.00,22.4,21.0,00.0,31.3,24.3,11.7,0000.0,0009.09,0005.15,0004.69
2023-02-12 17:21:00,,0824.8,4.99,0.00,22.4,21.0,00.0,31.3,24.3,11.7,0000.0,0009.25,0005.13,0004.67
2023-02-12 17:22:00,,0824.9,5.03,0.00,22.4,21.0,00.0,31.3,24.3,11.7,0000.0,0009.43,0005.11,0004.64
2023-02-12 17:23:00,,0824.9,5.00,0.00,22.4,21.0,00.0,31.3,24.3,11.8,0000.0,0008.65,0005.05,0004.60
2023-02-12 17:24:00,,0824.9,5.03,0.00,22.4,21.0,00.0,31.3,24.3,11.8,0000.0,0008.98,0005.00,0004.56
2023-02-12 17:25:00,,0824.9,4.97,0.00,22.5,21.4,00.0,31.2,24.4,11.7,0000.0,0008.92,0004.96,0004.51
2023-02-12 17:26:00,,0824.9,5.01,0.00,22.6,22.5,00.0,31.2,24.6,11.6,0000.0,0009.08,0004.93,0004.46
2023-02-12 17:27:00,,0825.0,5.00,0.00,22.7,22.9,00.0,31.3,24.8,11.4,0000.0,0010.17,0004.87,0004.40
2023-02-12 17:28:00,,0825.0,4.96,0.00,22.7,22.6,00.0,31.3,24.7,11.3,0000.0,0010.41,0004.85,0004.35
2023-02-12 17:29:00,,0824.9,4.96,0.00,22.7,22.3,00.0,31.4,24.7,11.5,0000.0,0010.38,0004.81,0004.32
2023-02-12 17:30:00,,0824.9,5.06,0.00,22.7,22.0,00.0,31.4,24.7,11.7,0000.0,0010.39,0004.79,0004.29
2023-02-12 17:31:00,,0824.9,4.99,0.00,22.7,21.9,00.0,31.4,24.6,11.5,0000.0,0010.34,0004.74,0004.26
2023-02-12 17:32:00,,0825.0,5.01,0.00,22.7,21.7,00.0,31.4,24.6,11.4,0000.0,0010.12,0004.68,0004.22
2023-02-12 17:33:00,,0825.0,4.99,0.00,22.7,21.5,00.0,31.5,24.6,11.4,0000.0,0009.86,0004.65,0004.20
2023-02-12 17:34:00,,0825.1,4.98,0.00,22.7,21.5,00.0,31.5,24.6,11.5,0000.0,0009.85,0004.64,0004.18
2023-02-12 17:35:00,,0825.2,5.00,0.00,22.7,21.4,00.0,31.5,24.6,11.5,0000.0,0009.24,0004.61,0004.16
2023-02-12 17:36:00,,0825.2,5.01,0.00,22.7,21.4,00.0,31.5,24.6,11.5,0000.0,0009.57,0004.58,0004.13
2023-02-12 17:37:00,,0825.2,4.98,0.00,22.7,21.3,00.0,31.5,24.5,11.6,0000.0,0009.59,0004.57,0004.12
2023-02-12 17:38:00,,0825.2,5.00,0.00,22.7,21.3,00.0,31.5,24.5,11.6,0000.0,0008.56,0004.55,0004.10
2023-02-12 17:39:00,,0825.1,4.99,0.00,22.7,21.2,00.0,31.5,24.5,11.6,0000.0,0008.24,0004.50,0004.07
2023-02-12 17:40:00,,0825.2,5.00,0.00,22.7,21.2,00.0,31.5,24.5,11.6,0000.0,0008.27,0004.44,0004.02
2023-02-12 17:41:00,,0825.1,5.02,0.00,22.7,21.2,00.0,31.5,24.5,11.4,0000.0,0008.37,0004.39,0003.97
2023-02-12 17:42:00,,0825.2,5.00,0.00,22.7,21.1,00.0,31.5,24.5,11.6,0000.0,0008.69,0004.37,0003.92
2023-02-12 17:43:00,,0825.2,4.98,0.00,22.7,21.1,00.0,31.5,24.5,11.8,0000.0,0009.18,0004.37,0003.86
2023-02-12 17:44:00,,0825.2,5.02,0.00,22.7,21.1,00.0,31.5,24.5,11.6,0000.0,0009.66,0004.35,0003.81
2023-02-12 17:45:00,,0825.3,5.00,0.00,22.7,21.1,00.0,31.5,24.5,11.6,0000.0,0010.08,0004.29,0003.75
2023-02-12 17:46:00,,0825.3,5.01,0.00,22.7,21.1,00.0,31.5,24.5,11.9,0000.0,0010.00,0004.24,0003.69
2023-02-12 17:47:00,,0825.3,5.01,0.00,22.7,21.1,00.0,31.5,24.5,11.9,0000.0,0009.51,0004.17,0003.63
2023-02-12 17:48:00,,0825.3,5.00,0.00,22.6,21.1,00.0,31.5,24.5,11.8,0000.0,0009.26,0004.11,0003.59
2023-02-12 17:49:00,,0825.4,4.97,0.00,22.6,21.1,00.0,31.5,24.4,11.8,0000.0,0009.17,0004.08,0003.56
2023-02-12 17:50:00,,0825.3,5.00,0.00,22.6,21.0,00.0,31.5,24.4,11.9,0000.0,0009.09,0004.07,0003.53
2023-02-12 17:51:00,,0825.4,5.00,0.00,22.6,21.1,00.0,31.5,24.5,12.1,0000.0,0008.95,0004.06,0003.51
2023-02-12 17:52:00,,0825.4,5.01,0.00,22.6,21.1,00.0,31.5,24.5,12.0,0000.0,0009.26,0004.03,0003.48
2023-02-12 17:53:00,,0825.4,5.01,0.00,22.6,21.1,00.0,31.5,24.4,12.0,0000.0,0009.25,0003.99,0003.45
2023-02-12 17:54:00,,0825.5,4.98,0.00,22.6,21.1,00.0,31.5,24.4,12.0,0000.0,0008.64,0003.93,0003.43
2023-02-12 17:55:00,,0825.4,5.01,0.00,22.6,21.1,00.0,31.5,24.4,11.9,0000.0,0008.26,0003.87,0003.39
2023-02-12 17:56:00,,0825.4,5.02,0.00,22.6,21.1,00.0,31.5,24.4,12.0,0000.0,0007.72,0003.87,0003.37
2023-02-12 17:57:00,,0825.4,5.01,0.00,22.6,21.1,00.0,31.4,24.4,12.1,0000.0,0007.68,0003.83,0003.35
2023-02-12 17:58:00,,0825.4,5.04,0.00,22.7,21.9,00.0,31.4,24.6,11.9,0000.0,0007.77,0003.86,0003.34
2023-02-12 17:59:00,,0825.5,4.98,0.00,22.8,22.9,00.0,31.4,24.9,11.8,0000.0,0007.77,0003.83,0003.32
